Time,TemperatureF,DewpointF,PressureIn,WindDirection,WindDirectionDegrees,WindSpeedMPH,WindSpeedGustMPH,Humidity,HourlyPrecipIn,Conditions,Clouds,dailyrainin,SoftwareType,DateUTC
2013-02-08 00:09:00,37.6,38.0,30.00,NW,315,1.0,13.0,100,0.02,,,0.56,weatherlink.com 1.10,2013-02-08 05:09:00,
2013-02-08 00:24:00,37.6,38.0,30.00,West,264,2.0,10.0,100,0.01,,,0.56,weatherlink.com 1.10,2013-02-08 05:24:00,
2013-02-08 00:39:00,37.5,38.0,29.99,WNW,287,7.0,10.0,100,0.01,,,0.56,weatherlink.com 1.10,2013-02-08 05:39:00,
2013-02-08 00:54:00,37.7,38.0,29.98,NW,304,3.0,11.0,100,0.01,,,0.00,weatherlink.com 1.10,2013-02-08 05:54:00,
2013-02-08 01:09:00,37.8,38.0,29.98,WNW,301,4.0,11.0,100,0.00,,,0.00,weatherlink.com 1.10,2013-02-08 06:09:00,
2013-02-08 01:24:00,37.8,38.0,29.96,NW,318,8.0,15.0,99,0.00,,,0.00,weatherlink.com 1.10,2013-02-08 06:24:00,
2013-02-08 01:39:00,37.9,38.0,29.95,West,274,4.0,10.0,99,0.00,,,0.00,weatherlink.com 1.10,2013-02-08 06:39:00,
2013-02-08 01:54:00,38.0,38.0,29.94,NW,310,6.0,11.0,99,0.00,,,0.00,weatherlink.com 1.10,2013-02-08 06:54:00,
2013-02-08 02:09:00,38.0,38.0,29.94,WNW,301,7.0,9.0,99,0.00,,,0.00,weatherlink.com 1.10,2013-02-08 07:09:00,
2013-02-08 02:24:00,38.1,38.0,29.93,NW,310,5.0,11.0,99,0.00,,,0.00,weatherlink.com 1.10,2013-02-08 07:24:00,
2013-02-08 02:39:00,38.3,38.0,29.93,West,278,2.0,10.0,99,0.00,,,0.00,weatherlink.com 1.10,2013-02-08 07:39:00,
2013-02-08 02:54:00,38.5,38.0,29.94,NW,316,0.0,11.0,99,0.00,,,0.00,weatherlink.com 1.10,2013-02-08 07:54:00,
2013-02-08 03:09:00,38.5,38.0,29.95,NW,310,4.0,9.0,99,0.01,,,0.01,weatherlink.com 1.10,2013-02-08 08:09:00,
2013-02-08 03:24:00,38.5,38.0,29.95,WNW,285,3.0,6.0,99,0.01,,,0.01,weatherlink.com 1.10,2013-02-08 08:24:00,
2013-02-08 03:39:00,38.6,38.0,29.95,NW,307,1.0,11.0,98,0.01,,,0.01,weatherlink.com 1.10,2013-02-08 08:39:00,
2013-02-08 03:54:00,38.7,38.0,29.95,NW,308,2.0,8.0,98,0.01,,,0.01,weatherlink.com 1.10,2013-02-08 08:54:00,
2013-02-08 04:09:00,38.7,38.0,29.94,NW,312,5.0,8.0,98,0.00,,,0.01,weatherlink.com 1.10,2013-02-08 09:09:00,
2013-02-08 04:24:00,38.7,38.0,29.93,WNW,295,4.0,9.0,98,0.00,,,0.01,weatherlink.com 1.10,2013-02-08 09:24:00,
2013-02-08 04:39:00,38.8,38.0,29.93,NW,308,0.0,8.0,98,0.00,,,0.01,weatherlink.com 1.10,2013-02-08 09:39:00,
2013-02-08 04:54:00,38.7,38.0,29.93,NW,304,2.0,9.0,98,0.00,,,0.01,weatherlink.com 1.10,2013-02-08 09:54:00,
2013-02-08 05:09:00,38.9,38.0,29.94,WNW,290,1.0,7.0,98,0.00,,,0.01,weatherlink.com 1.10,2013-02-08 10:09:00,
2013-02-08 05:25:00,38.8,38.0,29.93,WNW,293,1.0,7.0,98,0.00,,,0.01,weatherlink.com 1.10,2013-02-08 10:25:00,
2013-02-08 05:40:00,38.8,38.0,29.93,WNW,283,2.0,6.0,98,0.00,,,0.01,weatherlink.com 1.10,2013-02-08 10:40:00,
2013-02-08 05:55:00,38.7,38.0,29.93,NW,309,0.0,6.0,98,0.00,,,0.01,weatherlink.com 1.10,2013-02-08 10:55:00,
2013-02-08 06:10:00,38.6,38.0,29.93,West,281,0.0,5.0,98,0.00,,,0.01,weatherlink.com 1.10,2013-02-08 11:10:00,
2013-02-08 06:25:00,38.5,38.0,29.92,WNW,303,0.0,3.0,98,0.00,,,0.01,weatherlink.com 1.10,2013-02-08 11:25:00,
2013-02-08 06:40:00,38.2,38.0,29.94,WSW,242,0.0,2.0,99,0.00,,,0.01,weatherlink.com 1.10,2013-02-08 11:40:00,
2013-02-08 06:55:00,38.0,38.0,29.93,NW,305,1.0,3.0,98,0.00,,,0.01,weatherlink.com 1.10,2013-02-08 11:55:00,
2013-02-08 07:10:00,37.9,38.0,29.93,NW,306,0.0,2.0,99,0.00,,,0.01,weatherlink.com 1.10,2013-02-08 12:10:00,
2013-02-08 07:25:00,37.5,37.0,29.93,NW,306,0.0,3.0,99,0.00,,,0.01,weatherlink.com 1.10,2013-02-08 12:25:00,
2013-02-08 07:40:00,37.3,37.0,29.94,NW,306,0.0,1.0,100,0.00,,,0.01,weatherlink.com 1.10,2013-02-08 12:40:00,
2013-02-08 07:55:00,37.4,37.0,29.95,NW,306,0.0,0.0,100,0.00,,,0.01,weatherlink.com 1.10,2013-02-08 12:55:00,
2013-02-08 08:10:00,37.7,38.0,29.95,NW,306,0.0,1.0,100,0.00,,,0.01,weatherlink.com 1.10,2013-02-08 13:10:00,
2013-02-08 08:25:00,38.5,39.0,29.95,NW,306,0.0,0.0,100,0.00,,,0.01,weatherlink.com 1.10,2013-02-08 13:25:00,
2013-02-08 08:40:00,39.4,39.0,29.95,NW,306,2.0,2.0,100,0.00,,,0.01,weatherlink.com 1.10,2013-02-08 13:40:00,
2013-02-08 08:55:00,40.4,40.0,29.96,SW,215,0.0,4.0,97,0.00,,,0.01,weatherlink.com 1.10,2013-02-08 13:55:00,
2013-02-08 09:10:00,41.3,40.0,29.97,SSW,198,1.0,5.0,96,0.00,,,0.01,weatherlink.com 1.10,2013-02-08 14:10:00,
2013-02-08 09:25:00,42.4,41.0,29.97,SSW,211,0.0,4.0,95,0.00,,,0.01,weatherlink.com 1.10,2013-02-08 14:25:00,
2013-02-08 09:40:00,43.4,41.0,29.97,SSW,212,0.0,3.0,91,0.00,,,0.01,weatherlink.com 1.10,2013-02-08 14:40:00,
2013-02-08 09:55:00,44.6,42.0,29.96,SW,222,1.0,4.0,89,0.00,,,0.01,weatherlink.com 1.10,2013-02-08 14:55:00,
2013-02-08 10:10:00,45.0,42.0,29.96,SW,222,0.0,2.0,89,0.00,,,0.01,weatherlink.com 1.10,2013-02-08 15:10:00,
2013-02-08 10:25:00,45.7,42.0,29.96,SSE,151,1.0,3.0,88,0.00,,,0.01,weatherlink.com 1.10,2013-02-08 15:25:00,
2013-02-08 10:40:00,46.6,43.0,29.96,SSE,151,1.0,3.0,86,0.00,,,0.01,weatherlink.com 1.10,2013-02-08 15:40:00,
2013-02-08 10:55:00,46.8,43.0,29.96,SE,136,0.0,1.0,87,0.00,,,0.01,weatherlink.com 1.10,2013-02-08 15:55:00,
2013-02-08 11:10:00,47.3,43.0,29.95,SE,145,1.0,5.0,86,0.00,,,0.01,weatherlink.com 1.10,2013-02-08 16:10:00,
2013-02-08 11:25:00,48.2,44.0,29.95,ESE,116,0.0,4.0,86,0.00,,,0.01,weatherlink.com 1.10,2013-02-08 16:25:00,
2013-02-08 11:40:00,50.4,45.0,29.94,SE,135,4.0,8.0,83,0.00,,,0.01,weatherlink.com 1.10,2013-02-08 16:40:00,
2013-02-08 11:55:00,51.6,46.0,29.93,SSW,206,3.0,7.0,82,0.00,,,0.01,weatherlink.com 1.10,2013-02-08 16:55:00,
2013-02-08 12:10:00,53.2,47.0,29.93,SW,221,10.0,10.0,80,0.00,,,0.01,weatherlink.com 1.10,2013-02-08 17:10:00,
2013-02-08 12:25:00,53.8,47.0,29.92,SSE,150,4.0,11.0,78,0.00,,,0.01,weatherlink.com 1.10,2013-02-08 17:25:00,
2013-02-08 12:40:00,53.4,47.0,29.92,South,182,3.0,9.0,80,0.00,,,0.01,weatherlink.com 1.10,2013-02-08 17:40:00,
2013-02-08 12:55:00,54.6,48.0,29.91,SSW,192,5.0,11.0,78,0.00,,,0.01,weatherlink.com 1.10,2013-02-08 17:55:00,
2013-02-08 13:11:00,54.7,48.0,29.91,SSE,157,2.0,8.0,78,0.00,,,0.01,weatherlink.com 1.10,2013-02-08 18:11:00,
2013-02-08 13:26:00,56.2,49.0,29.90,SE,136,6.0,12.0,76,0.00,,,0.01,weatherlink.com 1.10,2013-02-08 18:26:00,
2013-02-08 13:41:00,57.0,49.0,29.89,SSE,157,2.0,8.0,74,0.00,,,0.01,weatherlink.com 1.10,2013-02-08 18:41:00,
2013-02-08 13:56:00,56.8,49.0,29.88,South,181,4.0,10.0,74,0.00,,,0.01,weatherlink.com 1.10,2013-02-08 18:56:00,
2013-02-08 14:11:00,57.1,49.0,29.88,ESE,118,4.0,9.0,74,0.00,,,0.01,weatherlink.com 1.10,2013-02-08 19:11:00,
2013-02-08 14:26:00,57.5,49.0,29.88,SSE,152,1.0,6.0,74,0.00,,,0.01,weatherlink.com 1.10,2013-02-08 19:26:00,
2013-02-08 14:41:00,57.3,49.0,29.89,SSW,199,1.0,7.0,75,0.00,,,0.01,weatherlink.com 1.10,2013-02-08 19:41:00,
2013-02-08 14:56:00,57.0,45.0,29.88,South,181,7.0,15.0,64,0.00,,,0.01,weatherlink.com 1.10,2013-02-08 19:56:00,
2013-02-08 15:11:00,57.2,45.0,29.89,SSW,210,6.0,9.0,64,0.00,,,0.01,weatherlink.com 1.10,2013-02-08 20:11:00,
2013-02-08 15:26:00,57.3,45.0,29.89,WSW,252,8.0,16.0,64,0.00,,,0.01,weatherlink.com 1.10,2013-02-08 20:26:00,
2013-02-08 15:41:00,57.1,45.0,29.90,West,262,4.0,10.0,64,0.00,,,0.01,weatherlink.com 1.10,2013-02-08 20:41:00,
2013-02-08 15:56:00,55.9,44.0,29.90,West,281,3.0,10.0,64,0.00,,,0.01,weatherlink.com 1.10,2013-02-08 20:56:00,
2013-02-08 16:11:00,56.1,42.0,29.91,West,266,5.0,11.0,60,0.00,,,0.01,weatherlink.com 1.10,2013-02-08 21:11:00,
2013-02-08 16:26:00,55.2,39.0,29.92,WSW,240,4.0,11.0,55,0.00,,,0.01,weatherlink.com 1.10,2013-02-08 21:26:00,
2013-02-08 16:41:00,54.6,39.0,29.93,SW,223,2.0,5.0,55,0.00,,,0.01,weatherlink.com 1.10,2013-02-08 21:41:00,
2013-02-08 16:56:00,55.3,38.0,29.93,SW,224,5.0,8.0,53,0.00,,,0.01,weatherlink.com 1.10,2013-02-08 21:56:00,
2013-02-08 17:11:00,55.0,37.0,29.93,WSW,252,3.0,9.0,52,0.00,,,0.01,weatherlink.com 1.10,2013-02-08 22:11:00,
2013-02-08 17:26:00,54.5,38.0,29.93,SW,215,1.0,5.0,54,0.00,,,0.01,weatherlink.com 1.10,2013-02-08 22:26:00,
2013-02-08 17:41:00,53.9,37.0,29.95,West,276,0.0,3.0,54,0.00,,,0.01,weatherlink.com 1.10,2013-02-08 22:41:00,
2013-02-08 17:56:00,53.1,37.0,29.95,WSW,258,0.0,6.0,54,0.00,,,0.01,weatherlink.com 1.10,2013-02-08 22:56:00,
2013-02-08 18:11:00,52.4,35.0,29.96,WSW,257,3.0,9.0,52,0.00,,,0.01,weatherlink.com 1.10,2013-02-08 23:11:00,
2013-02-08 18:26:00,51.7,34.0,29.96,WSW,257,0.0,6.0,51,0.00,,,0.01,weatherlink.com 1.10,2013-02-08 23:26:00,
2013-02-08 18:41:00,51.2,32.0,29.97,SW,233,3.0,15.0,49,0.00,,,0.01,weatherlink.com 1.10,2013-02-08 23:41:00,
2013-02-08 18:56:00,50.6,32.0,29.98,SW,236,2.0,7.0,50,0.00,,,0.01,weatherlink.com 1.10,2013-02-08 23:56:00,
2013-02-08 19:11:00,50.0,31.0,29.98,WSW,252,7.0,9.0,49,0.00,,,0.01,weatherlink.com 1.10,2013-02-09 00:11:00,
2013-02-08 19:26:00,49.2,32.0,29.99,WSW,247,0.0,7.0,51,0.00,,,0.01,weatherlink.com 1.10,2013-02-09 00:26:00,
2013-02-08 19:41:00,48.9,32.0,30.00,WSW,257,2.0,9.0,52,0.00,,,0.01,weatherlink.com 1.10,2013-02-09 00:41:00,
2013-02-08 19:56:00,48.3,32.0,30.01,WSW,258,3.0,7.0,54,0.00,,,0.01,weatherlink.com 1.10,2013-02-09 00:56:00,
2013-02-08 20:11:00,47.4,32.0,30.02,WSW,240,1.0,6.0,56,0.00,,,0.01,weatherlink.com 1.10,2013-02-09 01:11:00,
2013-02-08 20:26:00,46.9,32.0,30.02,SW,233,3.0,6.0,57,0.00,,,0.01,weatherlink.com 1.10,2013-02-09 01:26:00,
2013-02-08 20:41:00,46.2,32.0,30.03,SW,222,0.0,9.0,59,0.00,,,0.01,weatherlink.com 1.10,2013-02-09 01:41:00,
2013-02-08 20:56:00,45.9,32.0,30.04,West,272,1.0,10.0,59,0.00,,,0.01,weatherlink.com 1.10,2013-02-09 01:56:00,
2013-02-08 21:11:00,45.5,31.0,30.05,WSW,249,1.0,10.0,58,0.00,,,0.01,weatherlink.com 1.10,2013-02-09 02:11:00,
2013-02-08 21:26:00,45.1,30.0,30.06,West,266,2.0,11.0,57,0.00,,,0.01,weatherlink.com 1.10,2013-02-09 02:26:00,
2013-02-08 21:41:00,44.3,31.0,30.06,West,272,3.0,5.0,59,0.00,,,0.01,weatherlink.com 1.10,2013-02-09 02:41:00,
2013-02-08 21:56:00,43.6,30.0,30.07,West,268,3.0,13.0,59,0.00,,,0.01,weatherlink.com 1.10,2013-02-09 02:56:00,
2013-02-08 22:11:00,43.5,30.0,30.09,WNW,284,0.0,9.0,59,0.00,,,0.01,weatherlink.com 1.10,2013-02-09 03:11:00,
2013-02-08 22:26:00,43.0,30.0,30.09,WSW,257,4.0,8.0,60,0.00,,,0.01,weatherlink.com 1.10,2013-02-09 03:26:00,
2013-02-08 22:41:00,42.6,29.0,30.10,WSW,240,1.0,9.0,60,0.00,,,0.01,weatherlink.com 1.10,2013-02-09 03:41:00,
2013-02-08 22:56:00,42.0,29.0,30.10,West,261,2.0,13.0,60,0.00,,,0.01,weatherlink.com 1.10,2013-02-09 03:56:00,
2013-02-08 23:11:00,41.6,28.0,30.10,West,281,2.0,10.0,60,0.00,,,0.01,weatherlink.com 1.10,2013-02-09 04:11:00,
2013-02-08 23:26:00,40.9,29.0,30.10,WSW,249,2.0,5.0,62,0.00,,,0.01,weatherlink.com 1.10,2013-02-09 04:26:00,
2013-02-08 23:41:00,40.2,28.0,30.11,SW,235,0.0,4.0,63,0.00,,,0.01,weatherlink.com 1.10,2013-02-09 04:41:00,
2013-02-08 23:57:00,40.1,28.0,30.12,West,264,0.0,9.0,63,0.00,,,0.01,weatherlink.com 1.10,2013-02-09 04:57:00,